[[{"header":{"parameterUnit":"m.s-1","parameterCategory":1,"la1":30.2991,"la2":30.254,"lo1":-89.0895,"lo2":-89.0444,"dy":0.0017,"dx":0.0017,"nx":28,"ny":28,"refTime":"2023-11-04T21:00:00:Z","depth":0,"parameterNumber":2,"parameterNumberName":"U-component_of_WINDS"},"data":[0,0,0,0,0,0,0,0,0,0,0,0,0,0,0,0,0,0,0,0,0,0,0,0,0,0,0,0,0,0,0,0,0,0,0,0,0,0,0,0,0,0,0,0,0,0,0,0,0,0,0,0,0,0,0,0,0,0,1.0521,1.0521,0,1.058,1.0581,1.0581,1.0575,1.0574,1.0574,1.0573,1.0631,1.0633,1.0636,0,0,0,0,0,0,0,0,0,0,0,0,0,1.0398,1.0401,1.052,1.0521,1.0522,1.058,1.0581,1.0582,1.0576,1.0574,1.0573,1.0572,1.063,1.0633,1.0636,0,0,0,0,0,0,0,0,0,0,0,0,0,1.0454,1.0401,1.052,1.0526,1.0527,1.058,1.0581,1.0582,1.0576,1.0574,1.0573,1.0572,1.0629,1.0633,1.0636,1.0686,0,0,1.0647,1.0649,0,0,0,0,0,0,0,0,1.0451,1.0458,1.0524,1.0526,1.0527,1.0569,1.0559,1.0617,1.0576,1.0557,1.0573,1.0571,1.0611,1.0616,1.063,1.0689,1.0692,1.0648,1.065,1.0651,1.0652,0,0,0,0,0,0,0,1.0447,1.0456,1.0544,1.0525,1.0527,1.0525,1.0531,1.057,1.0591,1.0559,1.0558,1.0566,1.0612,1.0627,1.0632,1.0692,1.0648,1.0651,1.0653,1.0654,1.0794,1.0796,0,0,0,0,0,0,1.0442,1.0453,1.0542,1.0546,1.0485,1.0528,1.0535,1.0557,1.0591,1.0595,1.0567,1.0565,1.0621,1.0628,1.0634,1.0694,1.0651,1.0655,1.0657,1.0793,1.0795,1.0796,0,0,0,0,0,0,1.044,1.045,1.054,1.0499,1.051,1.0532,1.0556,1.0559,1.0574,1.0597,1.06,1.0579,1.0621,1.0629,1.0673,1.0696,1.0656,1.066,1.0791,1.0793,1.0796,1.0815,0,0,0,0,0,0,1.0436,1.0449,1.0469,1.05,1.0513,1.0579,1.0557,1.0561,1.0581,1.0579,1.0609,1.0613,1.062,1.0668,1.0677,1.07,1.0663,1.0789,1.0792,1.0795,1.0812,1.0818,1.0822,0,0,0,0,0,1.0432,1.0472,1.047,1.0481,1.0538,1.058,1.0588,1.0596,1.0582,1.0602,1.0617,1.0612,1.0692,1.0673,1.0683,1.0707,1.0788,1.0791,1.0795,1.081,1.0817,1.0822,0,0,0,0,0,0,1.0442,1.0476,1.0475,1.0526,1.0551,1.0579,1.0604,1.0603,1.0631,1.0628,1.0637,1.0644,1.0689,1.0703,1.068,1.0757,1.0738,1.0744,1.0746,1.0753,1.0758,1.0753,1.0666,0,0,0,0,0,1.0451,1.0484,1.0511,1.0553,1.0566,1.0583,1.0602,1.0607,1.0632,1.0642,1.066,1.0684,1.0715,1.0735,1.0764,1.0815,1.0821,1.0837,1.0842,1.0845,1.085,1.0877,1.0884,1.0808,1.0808,1.0808,0,0,1.0468,1.0491,1.0511,1.0556,1.0576,1.0608,1.0592,1.0627,1.0651,1.0647,1.069,1.0704,1.0732,1.0779,1.0801,1.0792,1.0872,1.085,1.0853,1.0855,1.0881,1.0888,1.0895,1.081,1.081,1.0809,0,0,1.0517,1.0537,1.0575,1.0595,1.0625,1.0637,1.0646,1.0675,1.0684,1.0728,1.0726,1.0754,1.0807,1.0826,1.0843,1.0899,1.0895,1.0909,1.0934,1.096,1.0966,1.0971,1.099,1.0997,1.0913,1.0913,1.0913,0,1.0534,1.0584,1.0594,1.063,1.0649,1.0649,1.0686,1.0705,1.0743,1.0756,1.0745,1.0812,1.083,1.0882,1.0896,1.091,1.0919,1.0905,1.0964,1.097,1.0975,1.0993,1.1,1.0915,1.0914,1.0914,1.0914,0,1.0603,1.0638,1.0665,1.0702,1.0725,1.0761,1.0776,1.0797,1.08,1.0812,1.0856,1.0879,1.0913,1.0925,1.0928,1.0978,1.0971,1.0963,1.0943,1.0983,1.1001,1.1008,1.0917,1.0916,1.0916,1.0915,0,0,1.0659,1.0702,1.0712,1.0729,1.0762,1.0789,1.0825,1.0859,1.0876,1.0903,1.0932,1.0977,1.097,1.0989,1.0994,1.1017,1.1059,1.1006,1.1006,1.1014,1.1114,1.1119,1.1127,1.1057,1.1058,1.1059,1.1111,0,1.071,1.0774,1.0785,1.0841,1.0873,1.0873,1.0904,1.0927,1.0939,1.0967,1.098,1.1012,1.1,1.1011,1.1035,1.1049,1.1079,1.1046,1.1083,1.1085,1.1076,1.1136,1.1142,1.119,1.1118,1.1119,1.112,0,1.0777,1.0806,1.0866,1.0895,1.0909,1.0937,1.0969,1.0996,1.1022,1.1029,1.1051,1.1053,1.1089,1.107,1.1119,1.1096,1.1112,1.1122,1.1124,1.1127,1.1104,1.114,1.1205,1.1212,1.1131,1.113,1.1129,0,1.081,1.0865,1.0907,1.0922,1.0957,1.0977,1.0992,1.1017,1.1037,1.1065,1.1077,1.1108,1.1125,1.1149,1.1159,1.1144,1.1208,1.1189,1.1214,1.1214,1.1226,1.1225,1.1294,1.1239,1.1239,1.1238,1.1238,0,1.0865,1.0901,1.0923,1.0949,1.0989,1.1,1.104,1.1055,1.1077,1.1105,1.1107,1.1133,1.1146,1.1174,1.1182,1.1221,1.1229,1.1235,1.1237,1.1234,1.1233,1.1244,1.1241,1.124,1.124,1.124,1.1239,0,1.0908,1.0924,1.0971,1.1001,1.1009,1.1038,1.1063,1.1088,1.11,1.1136,1.1145,1.1164,1.1197,1.121,1.125,1.1256,1.1301,1.13,1.1292,1.1292,1.1316,1.1313,1.1394,1.1404,1.1342,1.1343,1.1344,0,1.0942,1.097,1.1003,1.1023,1.1039,1.1071,1.1091,1.1103,1.1124,1.1157,1.1177,1.1211,1.1238,1.129,1.1307,1.1338,1.1337,1.1363,1.1341,1.1338,1.1336,1.1334,1.1336,1.1367,1.1367,1.1368,1.1368,0,1.0999,1.1006,1.1036,1.1068,1.1093,1.1119,1.1144,1.116,1.1176,1.1199,1.1234,1.1255,1.1296,1.1328,1.136,1.1375,1.1374,1.1375,1.1382,1.138,1.1373,1.1376,1.1302,1.1373,1.1372,1.1372,1.1372,1.1372,1.1038,1.1062,1.109,1.1123,1.1144,1.1168,1.1192,1.1209,1.1238,1.1273,1.1278,1.1315,1.134,1.1382,1.1399,1.1427,1.142,1.143,1.1433,1.1435,1.1436,1.137,1.1432,1.1432,1.1432,1.1432,1.1432,0,1.1094,1.1112,1.1143,1.1179,1.1204,1.1203,1.1231,1.1252,1.1285,1.1309,1.1336,1.1375,1.1407,1.1426,1.1458,1.1477,1.1477,1.1484,1.1483,1.1486,1.1441,1.1431,1.1484,1.1484,1.1484,1.1484,1.1484,1.1484,1.1126,1.1168,1.1178,1.123,1.1247,1.1284,1.13,1.1321,1.1341,1.1385,1.1411,1.1425,1.1447,1.148,1.1509,1.1514,1.1525,1.1533,1.1537,1.1495,1.1489,1.1484,1.1475,1.1536,1.1536,1.158,1.158,1.158]},{"header":{"parameterUnit":"m.s-1","parameterCategory":1,"la1":30.2991,"la2":30.254,"lo1":-89.0895,"lo2":-89.0444,"dy":0.0017,"dx":0.0017,"nx":28,"ny":28,"refTime":"2023-11-04T21:00:00:Z","depth":0,"parameterNumber":3,"parameterNumberName":"V-component_of_WINDS"},"data":[0,0,0,0,0,0,0,0,0,0,0,0,0,0,0,0,0,0,0,0,0,0,0,0,0,0,0,0,0,0,0,0,0,0,0,0,0,0,0,0,0,0,0,0,0,0,0,0,0,0,0,0,0,0,0,0,0,0,1.2715,1.2714,0,1.2631,1.263,1.2629,1.2575,1.2574,1.2574,1.2574,1.248,1.2478,1.2476,0,0,0,0,0,0,0,0,0,0,0,0,0,1.2821,1.2819,1.2715,1.2714,1.2713,1.2631,1.263,1.2629,1.2575,1.2574,1.2574,1.2574,1.2481,1.2478,1.2476,0,0,0,0,0,0,0,0,0,0,0,0,0,1.276,1.2819,1.2715,1.2676,1.2672,1.2632,1.263,1.2629,1.2575,1.2574,1.2574,1.2573,1.2482,1.2478,1.2475,1.2465,0,0,1.2465,1.2464,0,0,0,0,0,0,0,0,1.2763,1.2756,1.2683,1.2679,1.2674,1.2613,1.2633,1.2573,1.2575,1.2612,1.2574,1.2573,1.2524,1.2517,1.2502,1.246,1.2456,1.2465,1.2463,1.2461,1.2461,0,0,0,0,0,0,0,1.2767,1.2759,1.2682,1.2682,1.2677,1.266,1.2651,1.2621,1.2571,1.2608,1.2604,1.2595,1.2522,1.2506,1.25,1.2455,1.2465,1.2462,1.246,1.2459,1.2397,1.2398,0,0,0,0,0,0,1.2779,1.2763,1.2684,1.2679,1.2719,1.2659,1.2649,1.2633,1.2572,1.2562,1.2596,1.2593,1.2512,1.2504,1.2496,1.2479,1.2461,1.2458,1.2457,1.2397,1.2397,1.2398,0,0,0,0,0,0,1.2781,1.2772,1.2688,1.272,1.2708,1.2658,1.2641,1.2632,1.2616,1.2562,1.2552,1.259,1.2511,1.2501,1.2473,1.2475,1.2457,1.2454,1.2397,1.2397,1.2398,1.2445,0,0,0,0,0,0,1.2785,1.2774,1.2771,1.272,1.2707,1.2669,1.2641,1.263,1.2611,1.2607,1.2554,1.2544,1.251,1.2478,1.247,1.247,1.2451,1.2396,1.2397,1.2397,1.2443,1.2447,1.2451,0,0,0,0,0,1.2789,1.2786,1.2771,1.2762,1.2703,1.2669,1.2661,1.2623,1.2612,1.2607,1.2573,1.2546,1.2476,1.2476,1.2466,1.2465,1.2396,1.2397,1.2397,1.2441,1.2446,1.2451,0,0,0,0,0,0,1.2836,1.2779,1.2762,1.2744,1.2712,1.266,1.2653,1.263,1.2599,1.2596,1.2548,1.2536,1.2513,1.2486,1.2487,1.2451,1.2433,1.2431,1.247,1.2474,1.2478,1.2484,1.2449,0,0,0,0,0,1.2845,1.2825,1.2775,1.2764,1.2749,1.2704,1.2688,1.2662,1.2626,1.2612,1.2575,1.2539,1.2508,1.2489,1.2459,1.2439,1.2425,1.2433,1.2437,1.244,1.244,1.2425,1.2428,1.24,1.24,1.24,0,0,1.2863,1.2829,1.2819,1.2773,1.2745,1.2723,1.2693,1.2671,1.2653,1.2607,1.258,1.2551,1.2507,1.2483,1.247,1.246,1.2444,1.2441,1.2444,1.2442,1.2426,1.2429,1.2432,1.2401,1.2401,1.2401,0,0,1.2883,1.2856,1.2844,1.2817,1.2776,1.2746,1.2743,1.2694,1.2674,1.2646,1.2611,1.2587,1.2537,1.2507,1.2485,1.2493,1.2467,1.2484,1.2504,1.249,1.2493,1.2494,1.2496,1.2498,1.2484,1.2484,1.2484,0,1.2909,1.2877,1.2839,1.282,1.2799,1.2759,1.2744,1.2719,1.2669,1.2655,1.2645,1.258,1.2547,1.2515,1.2517,1.2501,1.2494,1.249,1.2496,1.2497,1.2498,1.2499,1.25,1.2486,1.2486,1.2486,1.2485,0,1.291,1.2888,1.2882,1.2838,1.2817,1.28,1.2757,1.274,1.2715,1.2686,1.2656,1.2616,1.2576,1.2566,1.2541,1.253,1.2524,1.2505,1.2486,1.2504,1.2504,1.2504,1.2489,1.2489,1.2488,1.2487,0,0,1.2959,1.2894,1.2893,1.2872,1.2823,1.2804,1.2784,1.2747,1.2733,1.2699,1.2679,1.2637,1.2619,1.2595,1.2565,1.2554,1.2561,1.2536,1.2534,1.2541,1.2545,1.2559,1.2561,1.2544,1.2544,1.2543,1.2548,0,1.2972,1.2937,1.2902,1.2878,1.2856,1.2817,1.2798,1.2765,1.2737,1.2711,1.2678,1.2649,1.2628,1.2613,1.26,1.2564,1.2561,1.2563,1.2523,1.2522,1.2535,1.2561,1.2577,1.2583,1.2548,1.2548,1.2548,0,1.2983,1.2954,1.2928,1.2881,1.2871,1.2856,1.2818,1.2796,1.2756,1.2736,1.2708,1.2678,1.2651,1.2635,1.2597,1.2599,1.258,1.2559,1.2558,1.2553,1.2536,1.2556,1.2584,1.2586,1.2548,1.2548,1.2548,0,1.302,1.2974,1.2953,1.2936,1.2881,1.2871,1.2847,1.2807,1.2787,1.2753,1.2739,1.2702,1.2682,1.2652,1.2611,1.2603,1.2577,1.2557,1.2557,1.2558,1.2554,1.2554,1.2579,1.2542,1.2542,1.2542,1.2542,0,1.3038,1.3024,1.2969,1.2956,1.2938,1.2897,1.2879,1.2851,1.2816,1.2795,1.2757,1.2737,1.2684,1.2657,1.2625,1.2597,1.2588,1.2569,1.2561,1.2573,1.2575,1.256,1.2558,1.2542,1.2542,1.2542,1.2542,0,1.3078,1.3041,1.3015,1.2965,1.2952,1.2941,1.2896,1.2881,1.285,1.2823,1.2814,1.2765,1.2731,1.2687,1.2639,1.2617,1.2593,1.258,1.2607,1.2602,1.2604,1.2605,1.262,1.2619,1.2583,1.2584,1.2584,0,1.3092,1.308,1.303,1.3014,1.2992,1.2967,1.2947,1.2904,1.2884,1.2838,1.2827,1.2791,1.276,1.2707,1.2664,1.2627,1.2612,1.262,1.2606,1.2618,1.2611,1.2613,1.2611,1.2624,1.2624,1.2625,1.2625,0,1.312,1.3103,1.3076,1.3043,1.3021,1.2992,1.2961,1.2949,1.29,1.2879,1.2845,1.2821,1.2773,1.2736,1.2693,1.2665,1.2636,1.263,1.2628,1.264,1.2656,1.2647,1.2617,1.263,1.2629,1.2629,1.2629,1.2628,1.3147,1.3135,1.3097,1.3069,1.3041,1.3013,1.2996,1.2964,1.2936,1.2895,1.2871,1.2838,1.2796,1.2735,1.2708,1.2679,1.2669,1.2666,1.2665,1.2665,1.2668,1.2661,1.2671,1.2671,1.2671,1.2671,1.2671,0,1.3173,1.3147,1.3122,1.3081,1.3058,1.3035,1.3,1.2981,1.2953,1.2918,1.2889,1.2849,1.2814,1.2769,1.2729,1.2715,1.27,1.2706,1.2706,1.27,1.2681,1.2686,1.2718,1.2718,1.2718,1.2718,1.2718,1.2718,1.3184,1.3162,1.314,1.3103,1.3076,1.3046,1.3027,1.3,1.2972,1.293,1.2902,1.2873,1.2833,1.2791,1.2756,1.2743,1.273,1.2739,1.2723,1.2706,1.2701,1.2697,1.2702,1.2737,1.2737,1.2744,1.2744,1.2744]}]]